Weather History for EGNT - May, 2013

Change the Weather History Date:

Tuesday, May 14, 2013

  Actual Average Record
Temperature  
Mean Temperature 48 °F -  
Max Temperature 55 °F 58 °F 71 °F (2000)
Min Temperature 41 °F 44 °F 30 °F (2006)
Degree Days  
Heating Degree Days 17    
Moisture  
Dew Point 32 °F    
Average Humidity 56    
Maximum Humidity 76    
Minimum Humidity 38    
Precipitation  
Precipitation 0.00 in - - ()
Sea Level Pressure  
Sea Level Pressure 29.44 in    
Wind  
Wind Speed 12 mph ()    
Max Wind Speed 20 mph    
Max Gust Speed 28 mph    
Visibility 6.2 miles    
Events Rain    
Averages and records for this station are not official NWS values.
T = Trace of Precipitation, MM = Missing Value Source: Averaged Metar Reports

Daily Weather History Graph

Daily Weather History Graph

Search for Another Location

Airport or City:

Trip Planner

Search our weather history database for the weather conditions in past years. The results will help you decide how hot, cold, wet, or windy it might be!

Date:

Astronomy

May. 14, 2013 Rise Set
Actual Time 5:00 AM BST 9:06 PM BST
Civil Twilight 4:13 AM BST 9:54 PM BST
Nautical Twilight 3:03 AM BST 11:05 PM BST
Astronomical Twilight 1:35 AM BST 12:30 AM BST
Moon 8:27 AM BST (5/14) 12:05 AM BST (5/14)
Length of Visible Light 17h 41m
Length of Day
16h 06m
Waxing Crescent, 17% of the Moon is Illuminated
May 14
Waxing Crescent
May 18
First Quarter
May 25
Full
May 31
Last Quarter
Jun 8
New

Hourly Weather History & Observations

Time (BST) Temp. Windchill Dew Point Humidity Pressure Visibility Wind Dir Wind Speed Gust Speed Precip Events Conditions
12:20 AM 42.8 °F 36.6 °F 33.8 °F 70% 29.53 in 6.2 mi SW 11.5 mph - N/A   Partly Cloudy
1:20 AM 42.8 °F 35.8 °F 35.6 °F 76% 29.50 in 6.2 mi SW 13.8 mph - N/A   Scattered Clouds
1:50 AM 42.8 °F 36.2 °F 35.6 °F 76% 29.50 in 6.2 mi SW 12.7 mph - N/A   Scattered Clouds
2:20 AM 42.8 °F 36.6 °F 35.6 °F 76% 29.50 in 6.2 mi SW 11.5 mph - N/A   Scattered Clouds
2:50 AM 42.8 °F 35.4 °F 35.6 °F 76% 29.50 in 6.2 mi SW 15.0 mph - N/A   Scattered Clouds
3:20 AM 42.8 °F 34.8 °F 35.6 °F 76% 29.50 in 6.2 mi WSW 17.3 mph - N/A   Scattered Clouds
3:50 AM 42.8 °F 34.8 °F 35.6 °F 76% 29.47 in 6.2 mi WSW 17.3 mph - N/A   Scattered Clouds
4:20 AM 42.8 °F 35.1 °F 33.8 °F 70% 29.47 in 6.2 mi SW 16.1 mph - N/A   Scattered Clouds
5:20 AM 41.0 °F 35.2 °F 33.8 °F 76% 29.47 in 6.2 mi SW 9.2 mph - N/A   Partly Cloudy
5:50 AM 42.8 °F 36.2 °F 33.8 °F 70% 29.47 in 6.2 mi SW 12.7 mph - N/A   Partly Cloudy
6:20 AM 42.8 °F 36.2 °F 35.6 °F 76% 29.47 in 6.2 mi SW 12.7 mph - N/A Rain Light Rain Showers
6:50 AM 44.6 °F 38.8 °F 35.6 °F 71% 29.44 in 6.2 mi SW 11.5 mph - N/A   Partly Cloudy
7:20 AM 46.4 °F 40.1 °F 33.8 °F 62% 29.44 in 6.2 mi SW 15.0 mph - N/A   Partly Cloudy
7:50 AM 46.4 °F 39.8 °F 33.8 °F 62% 29.44 in 6.2 mi SW 16.1 mph - N/A   Partly Cloudy
8:20 AM 48.2 °F - 33.8 °F 58% 29.44 in 6.2 mi SW 16.1 mph 27.6 mph N/A   Partly Cloudy
8:50 AM 46.4 °F 39.0 °F 32.0 °F 57% 29.44 in 6.2 mi WSW 19.6 mph - N/A   Partly Cloudy
9:20 AM 48.2 °F - 32.0 °F 54% 29.44 in 6.2 mi WSW 17.3 mph - N/A   Partly Cloudy
9:50 AM 48.2 °F - 32.0 °F 54% 29.44 in 6.2 mi WSW 15.0 mph - N/A   Scattered Clouds
10:20 AM 50.0 °F - 33.8 °F 54% 29.44 in 6.2 mi WSW 17.3 mph - N/A   Scattered Clouds
10:50 AM 50.0 °F - 32.0 °F 50% 29.44 in 6.2 mi WSW 16.1 mph - N/A   Scattered Clouds
11:20 AM 50.0 °F - 33.8 °F 54% 29.44 in 6.2 mi WSW 16.1 mph - N/A   Scattered Clouds
11:50 AM 50.0 °F - 32.0 °F 50% 29.44 in 6.2 mi West 16.1 mph - N/A   Scattered Clouds
12:20 PM 53.6 °F - 30.2 °F 41% 29.44 in 6.2 mi WSW 16.1 mph - N/A   Scattered Clouds
12:50 PM 53.6 °F - 32.0 °F 44% 29.44 in 6.2 mi SW 15.0 mph 26.5 mph N/A   Scattered Clouds
1:20 PM 53.6 °F - 30.2 °F 41% 29.44 in 6.2 mi WSW 17.3 mph - N/A   Scattered Clouds
1:50 PM 53.6 °F - 32.0 °F 44% 29.44 in 6.2 mi SW 16.1 mph - N/A   Scattered Clouds
2:20 PM 51.8 °F - 30.2 °F 44% 29.42 in 6.2 mi WSW 15.0 mph - N/A   Partly Cloudy
2:50 PM 53.6 °F - 32.0 °F 44% 29.42 in 6.2 mi SW 15.0 mph - N/A   Partly Cloudy
3:20 PM 53.6 °F - 30.2 °F 41% 29.42 in 6.2 mi SW 13.8 mph - N/A Rain Light Rain Showers
3:50 PM 53.6 °F - 32.0 °F 44% 29.42 in 6.2 mi SW 13.8 mph - N/A   Partly Cloudy
4:20 PM 53.6 °F - 32.0 °F 44% 29.42 in 6.2 mi SW 13.8 mph - N/A   Partly Cloudy
4:50 PM 55.4 °F - 32.0 °F 41% 29.42 in 6.2 mi SW 13.8 mph - N/A   Partly Cloudy
5:20 PM 53.6 °F - 30.2 °F 41% 29.42 in 6.2 mi SW 12.7 mph - N/A   Partly Cloudy
5:50 PM 55.4 °F - 30.2 °F 38% 29.42 in 6.2 mi SW 11.5 mph - N/A   Partly Cloudy
6:20 PM 53.6 °F - 30.2 °F 41% 29.42 in 6.2 mi SW 10.4 mph - N/A   Partly Cloudy
6:50 PM 53.6 °F - 30.2 °F 41% 29.42 in 6.2 mi SSW 8.1 mph - N/A   Partly Cloudy
7:20 PM 53.6 °F - 30.2 °F 41% 29.42 in 6.2 mi SSW 8.1 mph - N/A   Partly Cloudy
7:50 PM 51.8 °F - 30.2 °F 44% 29.42 in 6.2 mi SW 8.1 mph - N/A   Partly Cloudy
8:20 PM 51.8 °F - 28.4 °F 41% 29.42 in 6.2 mi SW 5.8 mph - N/A   Partly Cloudy
8:50 PM 50.0 °F - 28.4 °F 43% 29.42 in 6.2 mi SW 4.6 mph - N/A   Partly Cloudy
9:20 PM 46.4 °F - 30.2 °F 53% 29.42 in - SSW 2.3 mph - N/A   Clear
9:50 PM 44.6 °F - 30.2 °F 57% 29.42 in - Calm Calm - N/A   Clear
10:20 PM 42.8 °F - 30.2 °F 61% 29.42 in - Calm Calm - N/A   Clear
10:50 PM 42.8 °F - 30.2 °F 61% 29.42 in - Calm Calm - N/A   Clear
11:20 PM 42.8 °F 41.1 °F 32.0 °F 66% 29.42 in - NW 3.5 mph - N/A   Clear
11:50 PM 42.8 °F - 33.8 °F 70% 29.42 in - NW 2.3 mph - N/A   Clear